Tracking 31027 objects as of 19-Jul-2025
HD Live streaming from Space Station
objects crossing your sky now

STARLINK-4670

Track STARLINK-4670 now!
10-day predictions
STARLINK-4670 is classified as:


NORAD ID: 53744
Int'l Code: 2022-107AW
Perigee: 546.2 km
Apogee: 547.6 km
Inclination: 53.2 °
Period: 95.4 minutes
Semi major axis: 6917 km
RCS: Unknown
Launch date: September 5, 2022
Source: United States (US)
Launch site: AIR FORCE EASTERN TEST RANGE (AFETR)
Your satellite tracking list
EUTE 33A (EB 3)
Track 1 satellite(s)




NASA's NSSDC Master Catalog

Two Line Element Set (TLE):
1 53744U 22107AW  25199.82784783  .00000131  00000-0  26301-4 0  9999
2 53744  53.2165 233.5925 0001008  81.2765 278.8342 15.08840916158510
Source of the keplerian elements: AFSPC